EW3857 Weather Reports


Display with metric or nautical units.
time (UTC)temp
F
wind
direction
speed
MPH
gust
MPH
rain 1hr
in
rain 24hr
in
rain mn
in
humidity
%
barometer
mb
20260903003350 81 195 0.0 0.0 0.00 0.00 0.00 83 1018.7
20260903002850 81 194 0.0 0.0 0.00 0.00 0.00 84 1018.8
20260903002345 82 191 0.0 0.0 0.00 0.00 0.00 81 1018.5
20260903001840 82 191 0.0 0.0 0.00 0.00 0.00 81 1018.5
20260903001335 82 190 0.0 0.0 0.00 0.00 0.00 80 1018.3
20260903000835 83 191 0.0 0.0 0.00 0.00 0.00 79 1018.2
20260903000332 83 190 0.0 0.0 0.00 0.00 0.00 80 1018.4
20260902235828 84 191 0.0 0.0 0.00 0.00 0.00 79 1018.2
20260902235323 84 192 0.0 0.0 0.00 0.00 0.00 79 1018.4
20260902234817 85 191 0.0 0.0 0.00 0.00 0.00 79 1018.5
20260902234317 85 193 0.0 0.0 0.00 0.00 0.00 79 1018.3
20260902233816 86 189 0.0 0.0 0.00 0.00 0.00 77 1018.6
20260902233311 86 189 0.0 0.0 0.00 0.00 0.00 77 1018.6
20260902232809 87 186 0.0 0.0 0.00 0.00 0.00 77 1018.4
20260902232310 88 186 0.0 0.0 0.00 0.00 0.00 75 1018.5
20260902231809 88 186 0.0 0.0 0.00 0.00 0.00 75 1018.6
20260902231304 89 185 0.0 0.0 0.00 0.00 0.00 74 1018.6
20260902230759 89 185 0.0 0.0 0.00 0.00 0.00 74 1018.6
20260902230258 90 182 0.0 0.0 0.00 0.00 0.00 74 1018.7
20260902225753 91 180 0.0 0.0 0.00 0.00 0.00 74 1018.7
20260902225248 91 179 0.0 0.0 0.00 0.00 0.00 70 1018.6
20260902224746 91 179 0.0 0.0 0.00 0.00 0.00 69 1018.8
20260902224242 91 176 0.0 0.0 0.00 0.00 0.00 71 1018.8
20260902223738 91 176 0.0 0.0 0.00 0.00 0.00 68 1018.7
20260902223237 92 176 0.0 0.0 0.00 0.00 0.00 64 1018.7
20260902222736 92 176 0.0 0.0 0.00 0.00 0.00 62 1018.5
20260902222231 92 173 0.0 0.0 0.00 0.00 0.00 52 1018.8
20260902221725 93 173 0.0 0.0 0.00 0.00 0.00 55 1018.8
20260902221219 93 173 0.0 0.0 0.00 0.00 0.00 53 1018.6
20260902220714 93 172 0.0 0.0 0.00 0.00 0.00 49 1018.9
20260902220214 93 172 0.0 0.0 0.00 0.00 0.00 50 1018.9
20260902215710 93 172 0.0 0.0 0.00 0.00 0.00 48 1018.8
20260902215205 93 174 0.0 0.0 0.00 0.00 0.00 49 1018.7
20260902214701 93 174 0.0 0.0 0.00 0.00 0.00 50 1018.9
20260902214159 93 170 0.0 0.0 0.00 0.00 0.00 48 1019.0
20260902213655 94 125 0.0 0.0 0.00 0.00 0.00 48 1019.0
20260902213149 94 174 0.0 0.0 0.00 0.00 0.00 47 1018.8
20260902212644 94 176 0.0 0.0 0.00 0.00 0.00 48 1019.1
20260902212141 94 174 0.0 0.0 0.00 0.00 0.00 51 1019.1
20260902211636 94 120 0.0 0.0 0.00 0.00 0.00 47 1019.2
20260902211131 94 172 0.0 0.0 0.00 0.00 0.00 50 1019.1
20260902210631 94 172 0.0 0.0 0.00 0.00 0.00 48 1019.2
20260902210126 94 171 0.0 0.0 0.00 0.00 0.00 47 1019.1
20260902205624 95 175 0.0 0.0 0.00 0.00 0.00 47 1019.4
20260902205120 96 175 0.0 0.0 0.00 0.00 0.00 47 1019.2
20260902204620 96 176 0.0 0.0 0.00 0.00 0.00 50 1019.1
20260902204109 96 176 0.0 0.0 0.00 0.00 0.00 50 1019.1
20260902203605 95 175 0.0 0.0 0.00 0.00 0.00 52 1019.3
20260902203104 95 168 0.0 0.0 0.00 0.00 0.00 50 1019.3
20260902202559 94 168 0.0 0.0 0.00 0.00 0.00 50 1019.5
20260902202056 94 124 0.0 0.0 0.00 0.00 0.00 51 1019.5
20260902201551 94 128 0.0 0.0 0.00 0.00 0.00 55 1019.5
20260902201050 94 177 0.0 0.0 0.00 0.00 0.00 57 1019.7
20260902200546 95 172 0.0 0.0 0.00 0.00 0.00 53 1019.7
20260902200036 95 164 0.0 0.0 0.00 0.00 0.00 55 1019.8
20260902195532 94 151 0.0 0.0 0.00 0.00 0.00 55 1019.9
20260902195030 94 168 0.0 0.0 0.00 0.00 0.00 53 1020.0
20260902194524 94 164 0.0 0.0 0.00 0.00 0.00 54 1019.8
20260902194019 94 155 0.0 0.0 0.00 0.00 0.00 56 1020.3
20260902193515 93 165 0.0 0.0 0.00 0.00 0.00 57 1020.1
20260902193015 93 169 0.0 0.0 0.00 0.00 0.00 59 1020.3
20260902192513 93 135 0.0 0.0 0.00 0.00 0.00 57 1020.1
20260902192012 93 140 0.0 0.0 0.00 0.00 0.00 60 1020.3
20260902191508 92 167 0.0 0.0 0.00 0.00 0.00 59 1020.2
20260902191002 92 152 0.0 0.0 0.00 0.00 0.00 63 1020.5
20260902190458 92 130 0.0 0.0 0.00 0.00 0.00 62 1020.5
20260902185953 92 147 0.0 0.0 0.00 0.00 0.00 64 1020.4
20260902185449 92 162 0.0 0.0 0.00 0.00 0.00 60 1020.5
20260902184944 92 165 0.0 0.0 0.00 0.00 0.00 63 1020.8
20260902184439 92 168 0.0 0.0 0.00 0.00 0.00 62 1020.7
20260902183935 92 167 0.0 0.0 0.00 0.00 0.00 64 1020.7
20260902183431 92 156 0.0 0.0 0.00 0.00 0.00 65 1020.8
20260902182927 92 150 0.0 0.0 0.00 0.00 0.00 67 1020.9
20260902182423 92 166 0.0 0.0 0.00 0.00 0.00 63 1020.8
20260902181919 92 168 0.0 0.0 0.00 0.00 0.00 66 1021.0
20260902181415 92 127 0.0 0.0 0.00 0.00 0.00 66 1020.9
20260902180909 91 118 0.0 0.0 0.00 0.00 0.00 63 1021.1
20260902180404 91 122 0.0 0.0 0.00 0.00 0.00 69 1020.9
20260902175900 91 147 0.0 0.0 0.00 0.00 0.00 67 1021.2
20260902175354 91 121 0.0 0.0 0.00 0.00 0.00 67 1021.2
20260902174849 91 129 0.0 0.0 0.00 0.00 0.00 66 1021.3
20260902174347 90 123 0.0 0.0 0.00 0.00 0.00 70 1021.1
20260902173837 90 114 0.0 0.0 0.00 0.00 0.00 68 1021.2
20260902173336 90 113 0.0 0.0 0.00 0.00 0.00 70 1021.6
20260902172831 90 119 0.0 0.0 0.00 0.00 0.00 71 1021.5
20260902172331 90 127 0.0 0.0 0.00 0.00 0.00 70 1021.7
20260902171825 90 120 0.0 0.0 0.00 0.00 0.00 71 1021.9
20260902171320 90 119 0.0 0.0 0.00 0.00 0.00 71 1021.7
20260902170812 90 158 0.0 0.0 0.00 0.00 0.00 72 1021.7
20260902170306 90 168 0.0 0.0 0.00 0.00 0.00 72 1022.1
20260902165801 90 162 0.0 0.0 0.00 0.00 0.00 71 1021.9
20260902165256 90 142 0.0 0.0 0.00 0.00 0.00 71 1022.3
20260902164750 90 167 0.0 0.0 0.00 0.00 0.00 71 1022.2
20260902164245 90 164 0.0 0.0 0.00 0.00 0.00 70 1022.2
20260902163739 90 166 0.0 0.0 0.00 0.00 0.00 70 1022.4
20260902163238 90 167 0.0 0.0 0.00 0.00 0.00 69 1022.3
20260902162732 89 169 0.0 0.0 0.00 0.00 0.00 68 1022.4
20260902162227 89 167 0.0 0.0 0.00 0.00 0.00 69 1022.7
20260902161722 89 164 0.0 0.0 0.00 0.00 0.00 68 1022.6
20260902161218 88 168 0.0 0.0 0.00 0.00 0.00 68 1022.7
20260902160714 87 125 0.0 0.0 0.00 0.00 0.00 69 1022.5
20260902160208 87 114 0.0 0.0 0.00 0.00 0.00 71 1022.4
20260902155706 88 134 0.0 0.0 0.00 0.00 0.00 68 1022.5
20260902155205 87 166 0.0 0.0 0.00 0.00 0.00 68 1022.8
20260902154701 87 142 0.0 0.0 0.00 0.00 0.00 69 1022.5
20260902154200 86 167 0.0 0.0 0.00 0.00 0.00 73 1022.6
20260902153655 86 134 0.0 0.0 0.00 0.00 0.00 74 1022.6
20260902153155 85 124 0.0 0.0 0.00 0.00 0.00 74 1022.8
20260902152651 85 165 0.0 0.0 0.00 0.00 0.00 74 1022.8
20260902152146 84 164 0.0 0.0 0.00 0.00 0.00 75 1022.6
20260902151642 84 170 0.0 0.0 0.00 0.00 0.00 79 1022.7
20260902151137 83 125 0.0 0.0 0.00 0.00 0.00 78 1022.5
20260902150632 83 127 0.0 0.0 0.00 0.00 0.00 83 1022.7
20260902150127 82 159 0.0 0.0 0.00 0.00 0.00 84 1022.6
20260902145622 82 138 0.0 0.0 0.00 0.00 0.00 85 1022.5
20260902145121 82 126 0.0 0.0 0.00 0.00 0.00 86 1022.6
20260902144618 82 135 0.0 0.0 0.00 0.00 0.00 88 1022.2
20260902144113 82 109 0.0 0.0 0.00 0.00 0.00 88 1022.4
20260902143607 82 120 0.0 0.0 0.00 0.00 0.00 88 1022.5
20260902143102 81 136 0.0 0.0 0.00 0.00 0.00 89 1022.4
20260902142558 81 118 0.0 0.0 0.00 0.00 0.00 89 1022.3
20260902142053 81 160 0.0 0.0 0.00 0.00 0.00 90 1022.5
20260902141548 81 95 0.0 0.0 0.00 0.00 0.00 90 1022.4
20260902141043 81 90 0.0 0.0 0.00 0.00 0.00 91 1022.5
20260902140538 80 109 0.0 0.0 0.00 0.00 0.00 92 1022.4
20260902140034 80 102 0.0 0.0 0.00 0.00 0.00 92 1022.5
20260902135533 80 86 0.0 0.0 0.00 0.00 0.00 92 1022.3
20260902135028 80 93 0.0 0.0 0.00 0.00 0.00 92 1022.4
20260902134523 80 79 0.0 0.0 0.00 0.00 0.00 91 1022.3
20260902134018 80 160 0.0 0.0 0.00 0.00 0.00 91 1022.6
20260902133513 80 149 0.0 0.0 0.00 0.00 0.00 92 1022.6
20260902133013 80 147 0.0 0.0 0.00 0.00 0.00 93 1022.7
20260902132508 80 151 0.0 0.0 0.00 0.00 0.00 92 1022.5
20260902132003 79 139 0.0 0.0 0.00 0.00 0.00 93 1022.3
20260902131459 79 145 0.0 0.0 0.00 0.00 0.00 93 1022.4
20260902130958 79 140 0.0 0.0 0.00 0.00 0.00 93 1022.4
20260902130454 79 199 0.0 0.0 0.00 0.00 0.00 93 1022.6
20260902125949 79 154 0.0 0.0 0.00 0.00 0.00 93 1022.5
20260902125446 79 143 0.0 0.0 0.00 0.00 0.00 94 1022.2
20260902124941 78 162 0.0 0.0 0.00 0.00 0.00 94 1022.3
20260902124437 78 151 0.0 0.0 0.00 0.00 0.00 95 1022.1
20260902123932 78 189 0.0 0.0 0.00 0.00 0.00 95 1022.2
20260902123429 78 182 0.0 0.0 0.00 0.00 0.00 96 1022.2
20260902122926 77 178 0.0 0.0 0.00 0.00 0.00 97 1022.4
20260902122423 77 190 0.0 0.0 0.00 0.00 0.00 97 1022.1
20260902121918 77 184 0.0 0.0 0.00 0.00 0.00 98 1022.1
20260902121413 76 186 0.0 0.0 0.00 0.00 0.00 98 1022.0
20260902120908 76 182 0.0 0.0 0.00 0.00 0.00 99 1022.1
20260902120404 76 191 0.0 0.0 0.00 0.00 0.00 99 1022.0
20260902115904 76 184 0.0 0.0 0.00 0.00 0.00 99 1022.0
20260902115400 75 187 0.0 0.0 0.00 0.00 0.00 99 1021.8
20260902114856 75 190 0.0 0.0 0.00 0.00 0.00 99 1021.8
20260902114351 75 187 0.0 0.0 0.00 0.00 0.00 99 1021.9
20260902113846 75 192 0.0 0.0 0.00 0.00 0.00 99 1022.0
20260902113342 75 189 0.0 0.0 0.00 0.00 0.00 99 1021.9
20260902112841 75 191 0.0 0.0 0.00 0.00 0.00 99 1021.9
20260902112338 75 187 0.0 0.0 0.00 0.00 0.00 99 1021.6
20260902111833 75 189 0.0 0.0 0.00 0.00 0.00 99 1021.7
20260902111329 75 186 0.0 0.0 0.00 0.00 0.00 99 1021.4
20260902110824 75 184 0.0 0.0 0.00 0.00 0.00 99 1021.3
20260902110320 75 185 0.0 0.0 0.00 0.00 0.00 99 1021.4
20260902105820 75 189 0.0 0.0 0.00 0.00 0.00 99 1021.5
20260902105315 75 186 0.0 0.0 0.00 0.00 0.00 99 1021.4
20260902104810 75 179 0.0 0.0 0.00 0.00 0.00 99 1021.4
20260902104306 75 185 0.0 0.0 0.00 0.00 0.00 99 1021.1
20260902103806 75 186 0.0 0.0 0.00 0.00 0.00 99 1021.1
20260902103301 75 184 0.0 0.0 0.00 0.00 0.00 99 1021.3
20260902102756 75 181 0.0 0.0 0.00 0.00 0.00 99 1021.2
20260902102254 75 184 0.0 0.0 0.00 0.00 0.00 99 1021.2
20260902101749 75 181 0.0 0.0 0.00 0.00 0.00 99 1021.2
20260902101244 75 187 0.0 0.0 0.00 0.00 0.00 99 1021.1
20260902100743 75 179 0.0 0.0 0.00 0.00 0.00 99 1021.1
20260902100237 75 180 0.0 0.0 0.00 0.00 0.00 99 1021.1
20260902095732 76 179 0.0 0.0 0.00 0.00 0.00 99 1020.9
20260902095231 76 177 0.0 0.0 0.00 0.00 0.00 99 1021.1
20260902094721 75 178 0.0 0.0 0.00 0.00 0.00 99 1020.8
20260902094217 75 178 0.0 0.0 0.00 0.00 0.00 99 1020.9
20260902093710 75 177 0.0 0.0 0.00 0.00 0.00 99 1020.6
20260902093206 75 181 0.0 0.0 0.00 0.00 0.00 99 1020.7
20260902092700 75 178 0.0 0.0 0.00 0.00 0.00 99 1020.8
20260902092155 75 178 0.0 0.0 0.00 0.00 0.00 99 1020.6
20260902091654 75 178 0.0 0.0 0.00 0.00 0.00 99 1020.7
20260902091151 75 178 0.0 0.0 0.00 0.00 0.00 99 1020.5
20260902090647 75 182 0.0 0.0 0.00 0.00 0.00 99 1020.6
20260902090146 75 176 0.0 0.0 0.00 0.00 0.00 99 1020.4
20260902085642 75 177 0.0 0.0 0.00 0.00 0.00 99 1020.5
20260902085141 75 176 0.0 0.0 0.00 0.00 0.00 99 1020.4
20260902084638 75 176 0.0 0.0 0.00 0.00 0.00 99 1020.4
20260902084134 75 176 0.0 0.0 0.00 0.00 0.00 99 1020.3
20260902083628 75 176 0.0 0.0 0.00 0.00 0.00 99 1020.2
20260902083127 75 176 0.0 0.0 0.00 0.00 0.00 99 1020.3
20260902082623 75 175 0.0 0.0 0.00 0.00 0.00 99 1020.0
20260902082120 75 176 0.0 0.0 0.00 0.00 0.00 99 1020.4
20260902081616 75 176 0.0 0.0 0.00 0.00 0.00 99 1020.1
20260902081111 75 176 0.0 0.0 0.00 0.00 0.00 99 1020.3
20260902080606 75 176 0.0 0.0 0.00 0.00 0.00 99 1020.3
20260902075602 75 176 0.0 0.0 0.00 0.00 0.00 99 1020.1
20260902075058 75 176 0.0 0.0 0.00 0.00 0.00 99 1020.2
20260902074553 75 175 0.0 0.0 0.00 0.00 0.00 99 1019.8
20260902074048 75 176 0.0 0.0 0.00 0.00 0.00 99 1020.0
20260902073544 75 177 0.0 0.0 0.00 0.00 0.00 99 1019.9
20260902073040 75 176 0.0 0.0 0.00 0.00 0.00 99 1020.1
20260902072535 75 177 0.0 0.0 0.00 0.00 0.00 99 1020.1
20260902072032 75 177 0.0 0.0 0.00 0.00 0.00 99 1020.1
20260902071531 75 176 0.0 0.0 0.00 0.00 0.00 99 1020.1
20260902071028 75 176 0.0 0.0 0.00 0.00 0.00 99 1020.1
20260902070523 75 175 0.0 0.0 0.00 0.00 0.00 99 1020.3
20260902070017 75 176 0.0 0.0 0.00 0.00 0.00 99 1020.4
20260902065511 75 175 0.0 0.0 0.00 0.00 0.00 99 1020.5
20260902065007 76 177 0.0 0.0 0.00 0.00 0.00 99 1020.4
20260902064502 75 176 0.0 0.0 0.00 0.00 0.00 99 1020.2
20260902063958 76 175 0.0 0.0 0.00 0.00 0.00 98 1020.4
20260902063457 76 176 0.0 0.0 0.00 0.00 0.00 98 1020.2
20260902062953 76 177 0.0 0.0 0.00 0.00 0.00 98 1020.4
20260902062451 76 178 0.0 0.0 0.00 0.00 0.00 98 1020.3
20260902061947 76 176 0.0 0.0 0.00 0.00 0.00 98 1020.4
20260902061442 75 176 0.0 0.0 0.00 0.00 0.00 98 1020.4
20260902060938 76 177 0.0 0.0 0.00 0.00 0.00 98 1020.4
20260902060434 75 176 0.0 0.0 0.00 0.00 0.00 98 1020.5
20260902055930 76 175 0.0 0.0 0.00 0.00 0.00 98 1020.6
20260902055425 75 175 0.0 0.0 0.00 0.00 0.00 98 1020.6
20260902054920 75 176 0.0 0.0 0.00 0.00 0.00 98 1020.4
20260902054415 75 176 0.0 0.0 0.00 0.00 0.00 98 1020.2
20260902053911 75 175 0.0 0.0 0.00 0.00 0.00 97 1020.3
20260902053406 76 177 0.0 0.0 0.00 0.00 0.00 97 1020.2
20260902052905 76 175 0.0 0.0 0.00 0.00 0.00 97 1020.3
20260902052400 76 175 0.0 0.0 0.00 0.00 0.00 97 1020.4
20260902051855 76 175 0.0 0.0 0.00 0.00 0.00 97 1020.4
20260902051355 76 176 0.0 0.0 0.00 0.00 0.00 97 1020.6
20260902050849 75 176 0.0 0.0 0.00 0.00 0.00 97 1020.5
20260902050348 76 174 0.0 0.0 0.00 0.00 0.00 96 1020.4
20260902045844 76 175 0.0 0.0 0.00 0.00 0.00 96 1020.5
20260902045340 76 175 0.0 0.0 0.00 0.00 0.00 96 1020.3
20260902044837 76 175 0.0 0.0 0.00 0.00 0.00 96 1020.4
20260902044332 76 175 0.0 0.0 0.00 0.00 0.00 95 1020.4
20260902043832 76 175 0.0 0.0 0.00 0.00 0.00 95 1020.5
20260902043327 76 176 0.0 0.0 0.00 0.00 0.00 95 1020.4
20260902042827 76 175 0.0 0.0 0.00 0.00 0.00 95 1020.7
20260902042321 76 175 0.0 0.0 0.00 0.00 0.00 94 1020.7
20260902041817 76 176 0.0 0.0 0.00 0.00 0.00 94 1020.7
20260902041316 76 176 0.0 0.0 0.00 0.00 0.00 94 1020.6
20260902040815 76 175 0.0 0.0 0.00 0.00 0.00 94 1020.7
20260902040311 76 177 0.0 0.0 0.00 0.00 0.00 94 1020.9
20260902035810 76 177 0.0 0.0 0.00 0.00 0.00 93 1020.7
20260902035306 76 179 0.0 0.0 0.00 0.00 0.00 93 1020.5
20260902034804 76 176 0.0 0.0 0.00 0.00 0.00 93 1020.8
20260902034300 76 175 0.0 0.0 0.00 0.00 0.00 92 1020.8
20260902033757 76 175 0.0 0.0 0.00 0.00 0.00 92 1020.7
20260902033253 76 174 0.0 0.0 0.00 0.00 0.00 92 1020.6
20260902032751 76 176 0.0 0.0 0.00 0.00 0.00 91 1020.6
20260902032247 76 175 0.0 0.0 0.00 0.00 0.00 91 1020.6
20260902031746 76 175 0.0 0.0 0.00 0.00 0.00 91 1020.8
20260902031242 76 174 0.0 0.0 0.00 0.00 0.00 91 1020.7
20260902030737 76 175 0.0 0.0 0.00 0.00 0.00 90 1020.7
20260902030232 76 174 0.0 0.0 0.00 0.00 0.00 90 1020.7
20260902025731 76 176 0.0 0.0 0.00 0.00 0.00 90 1020.7
20260902025226 76 176 0.0 0.0 0.00 0.00 0.00 90 1020.7
20260902024721 77 175 0.0 0.0 0.00 0.00 0.00 89 1020.4
20260902024216 77 174 0.0 0.0 0.00 0.00 0.00 89 1020.7
20260902023712 77 174 0.0 0.0 0.00 0.00 0.00 89 1020.6
20260902023207 77 175 0.0 0.0 0.00 0.00 0.00 89 1020.7
20260902022706 77 176 0.0 0.0 0.00 0.00 0.00 89 1020.4
20260902022202 77 177 0.0 0.0 0.00 0.00 0.00 88 1020.5
20260902021657 77 176 0.0 0.0 0.00 0.00 0.00 88 1020.4
20260902021152 77 176 0.0 0.0 0.00 0.00 0.00 87 1020.3
20260902020648 77 175 0.0 0.0 0.00 0.00 0.00 87 1020.3
20260902020144 78 176 0.0 0.0 0.00 0.00 0.00 87 1020.4
20260902015639 78 176 0.0 0.0 0.00 0.00 0.00 87 1020.4
20260902015136 78 177 0.0 0.0 0.00 0.00 0.00 86 1020.4
20260902014631 78 178 0.0 0.0 0.00 0.00 0.00 87 1020.1
20260902014127 78 176 0.0 0.0 0.00 0.00 0.00 86 1020.3
20260902013626 78 176 0.0 0.0 0.00 0.00 0.00 86 1020.2
20260902013122 78 176 0.0 0.0 0.00 0.00 0.00 86 1020.0
20260902012617 78 176 0.0 0.0 0.00 0.00 0.00 86 1020.2
20260902012112 79 176 0.0 0.0 0.00 0.00 0.00 86 1019.9
20260902011607 79 175 0.0 0.0 0.00 0.00 0.00 86 1019.9
20260902011106 79 176 0.0 0.0 0.00 0.00 0.00 85 1019.8
20260902010601 79 176 0.0 0.0 0.00 0.00 0.00 85 1019.7
20260902010057 79 175 0.0 0.0 0.00 0.00 0.00 85 1019.9
20260902005554 79 174 0.0 0.0 0.00 0.00 0.00 85 1019.9
20260902005051 79 179 0.0 0.0 0.00 0.00 0.00 86 1019.9
20260902004550 80 178 0.0 0.0 0.00 0.00 0.00 86 1019.8
20260902004045 80 178 0.0 0.0 0.00 0.00 0.00 85 1019.7